Regional Weather Roundup
Issued by NWS

Home | Current Version | Previous Version | Text Only | Print | Product List | Glossary On
Versions: 1 2 3 4 5 6 7 8 9 10 11 12 13 14 15 16 17 18 19 20 21 22 23 24 25 26 27 28 29 30 31 32 33 34 35 36 37 38 39 40 41 42 43 44 45 46 47 48 49 50
000
ASUS44 KMEG 300210
RWRTN
TENNESSEE HOURLY STATE WEATHER ROUNDUP
NATIONAL WEATHER SERVICE MEMPHIS TN
900 PM CDT SAT APR 29 2017

TNZ002-004-019-021-049-052-054-088>092-300300-
WEST TENNESSEE

CITY           SKY/WX    TMP DP  RH WIND       PRES   REMARKS
MEMPHIS INTL   TSTM      70  65  84 SW16G30   29.86R
NWS MEMPHIS      N/A     74 N/A N/A MISG        N/A
JACKSON        PTCLDY    80  67  64 S8        29.87R
DYERSBURG      MOCLDY    80  68  66 SE13      29.85R
SOMERVILLE     MOCLDY    81  66  61 S8G15     29.85R
UNION CITY     PTCLDY    79  68  69 SE9       29.86R
BOLIVAR        PTCLDY    79  66  65 SE9G16    29.87R
HUNTINGDON     PTCLDY    79  66  65 S9        29.88R
LEXINGTON      PTCLDY    79  66  65 SE5G13    29.91R
SAVANNAH       MOCLDY    77  66  69 S8        29.91R
$$

TNZ008-025-027-028-033-062-065-066-300300-
NORTH MIDDLE TENNESSEE

CITY           SKY/WX    TMP DP  RH WIND       PRES   REMARKS
NASHVILLE      PTCLDY    78  65  63 S9        29.97R
PORTLAND       PTCLDY    77  64  65 S6        29.96R
CLARKSVILLE    CLEAR     79  64  60 S8        29.91S
SMYRNA         CLEAR     77  67  71 CALM      29.98R
COOKEVILLE     CLEAR     70  64  83 S8        30.01F
GALLATIN       PTCLDY    79  66  65 VRB3      29.99R
CROSSVILLE     CLOUDY    71  64  78 S7        30.10R
$$

TNZ061-075-076-078-094-096-097-300300-
SOUTH MIDDLE TENNESSEE

CITY           SKY/WX    TMP DP  RH WIND       PRES   REMARKS
FAYETTEVILLE   PTCLDY    77  64  65 S9        30.01R
TULLAHOMA      CLEAR     75  61  60 S7        30.03R
MCMINNVILLE    MOCLDY    73  64  73 VRB3      30.02S
COLUMBIA       CLEAR     79  68  69 S6        29.95R
SHELBYVILLE    CLEAR     79  64  61 S6        30.01R
$$

TNZ017-018-042-046-047-300300-
NORTHEAST TENNESSEE

CITY           SKY/WX    TMP DP  RH WIND       PRES   REMARKS
TRI CITIES     PTCLDY    77  65  66 S3        30.11R
ELIZABETHTON   PTCLDY    77  63  61 CALM      30.11R
$$

TNZ012-013-036-069-073-074-300300-
CENTRAL EAST TENNESSEE

CITY           SKY/WX    TMP DP  RH WIND       PRES   REMARKS
KNOXVILLE      CLOUDY    80  60  50 S8        30.04R
OAK RIDGE      MOCLDY    79  64  60 CALM      30.06R
DOWNTOWN KNOXV CLEAR     81  63  54 CALM      30.05S
GATLINBURG     CLEAR     75  61  60 CALM      30.06R
MORRISTOWN     CLEAR     77  63  61 S5        30.07R
JACKSBORO      CLEAR     81  61  50 SW12      30.07S
$$

TNZ083-085-099-300300-
SOUTHEAST TENNESSEE

CITY           SKY/WX    TMP DP  RH WIND       PRES   REMARKS
CHATTANOOGA    MOCLDY    72  70  93 NW5       30.05F
$$

SKY/WX REPORTED AS FAIR MEANS FEW OR NO CLOUDS BELOW
12 THOUSAND FEET.




USA.gov is the U.S. government's official web portal to all federal, state and local government web resources and services.